Wind_Speed
30 31 31 31 31 31 31 31 30 30 30 29 29 29 29 29 28 28 28 28 28 27 27 27 26 27 27 26 26 26 26 25 25 25 24 24 24 25 25 25 25 25 25
32 32 32 32 32 32 32 32 31 31 30 30 30 29 29 29 28 28 28 28 28 28 28 28 27 27 28 28 27 27 27 26 26 26 26 26 26 25 25 26 27 27 27
34 34 33 33 33 33 33 33 33 33 32 31 30 30 30 30 30 30 29 29 29 29 29 29 29 29 29 29 28 28 28 28 28 27 27 27 27 27 27 28 28 28 28
36 36 35 35 34 34 34 34 34 34 33 32 32 32 32 31 31 31 31 30 31 30 30 30 30 30 30 30 30 29 29 29 29 28 28 28 28 28 28 29 28 28 28
38 37 37 36 36 35 35 35 34 34 34 34 33 33 33 33 32 32 32 32 32 32 31 31 31 31 31 31 31 31 31 31 30 29 29 29 29 29 29 29 29 28 28
39 39 38 38 37 37 36 36 36 35 35 35 35 34 34 34 34 33 33 33 33 33 33 33 33 32 32 32 32 33 33 33 32 32 31 30 30 30 30 30 29 29 30
40 40 40 40 39 38 38 38 37 37 36 36 36 36 36 35 35 34 34 34 34 34 34 34 34 34 34 33 34 34 34 33 33 33 33 32 32 32 31 31 31 31 32
42 42 42 41 41 40 40 39 39 38 38 38 37 38 38 37 37 37 36 35 35 35 35 35 36 35 35 34 35 35 34 34 34 34 35 34 34 33 33 32 33 33 34
43 43 43 43 42 41 41 40 40 40 40 40 40 39 39 38 38 38 37 36 35 35 36 36 36 36 36 36 36 35 34 34 34 34 35 35 35 34 34 34 34 35 35
45 45 45 44 43 43 43 42 41 41 41 41 41 41 40 40 38 38 37 37 36 37 37 37 37 37 37 37 37 37 36 36 36 35 36 36 35 35 35 36 35 36 36
47 47 47 46 45 45 44 44 43 42 42 42 42 42 41 40 39 39 38 37 38 38 38 38 38 38 38 38 38 38 38 38 38 38 38 37 37 36 36 37 37 37 38
48 49 48 47 47 46 45 45 45 44 43 43 43 42 42 41 40 40 40 39 39 39 39 39 39 39 39 39 39 39 39 39 39 39 39 39 39 38 38 39 39 39 39
49 49 49 49 49 48 47 47 46 45 45 44 44 43 43 42 41 41 41 41 41 41 40 40 40 40 40 41 41 41 41 41 41 41 41 40 40 41 41 41 41 42 41
48 49 49 49 49 49 49 48 48 48 47 46 45 44 44 43 43 43 42 42 42 43 42 41 41 41 42 42 42 42 42 42 43 42 42 42 42 42 43 43 43 43 43
49 49 50 50 50 50 49 49 49 49 48 48 47 46 45 44 44 44 44 44 43 43 43 43 43 43 43 43 43 43 43 43 43 43 44 44 44 44 44 44 44 45 45
48 48 48 49 50 51 51 51 51 51 50 49 48 47 46 46 45 45 45 45 45 44 43 43 44 44 44 45 45 45 45 45 45 45 45 46 46 45 45 45 46 46 47
49 49 49 49 49 49 50 51 50 51 50 49 48 48 48 47 47 46 46 46 46 46 46 45 45 45 45 46 46 47 46 46 46 46 46 46 46 46 46 46 47 47 47
49 48 49 49 49 48 49 50 50 50 50 50 50 49 48 48 47 47 47 47 47 47 47 47 46 46 45 46 46 47 47 47 46 46 46 46 46 46 46 46 47 47 48
48 48 47 48 48 49 49 49 49 49 49 49 49 49 49 49 48 48 48 48 47 47 47 47 47 47 47 47 47 47 47 47 47 46 46 46 47 47 48 48 48 49 49
48 49 49 48 48 48 49 49 49 48 48 48 48 48 49 49 48 48 48 48 48 48 48 48 48 48 48 48 47 47 46 46 47 46 47 47 47 48 48 48 49 49 50
48 48 49 48 47 47 48 48 49 48 47 47 47 47 47 48 48 49 48 48 47 47 48 48 48 48 47 47 48 48 48 47 48 48 48 48 48 48 49 49 49 49 50
47 47 47 47 47 47 48 48 48 48 48 47 47 46 46 47 47 48 48 48 48 47 47 47 47 47 48 48 48 48 49 49 49 49 49 49 49 48 49 49 49 50 50
45 44 45 46 47 47 47 48 48 48 47 47 46 46 46 46 47 48 48 48 47 47 46 47 47 47 47 48 48 48 48 49 49 50 50 49 49 49 49 49 50 50 50
44 44 46 46 46 46 46 46 46 46 46 45 45 45 45 46 47 47 46 46 46 46 47 47 47 47 47 48 48 48 48 48 48 49 49 49 49 49 48 48 48 49 50
43 44 45 46 46 46 46 45 45 45 44 44 45 46 46 46 46 47 47 46 47 46 46 46 46 47 47 47 47 47 47 47 47 48 48 48 48 48 48 48 48 49 49
43 43 44 44 44 44 45 45 45 45 45 45 45 46 46 46 46 46 46 46 46 46 46 45 45 46 46 47 46 47 47 47 48 47 47 48 48 49 48 48 48 48 48
Wind_Direction
250 250 250 250 251 250 250 250 251 251 251 252 253 253 253 253 252 252 252 252 251 250 252 253 254 255 255 255 256 257 257 258 259 260 263 264 267 268 269 268 269 269 270
250 250 250 250 251 251 250 250 250 251 251 252 252 252 251 252 252 252 252 253 252 252 252 254 255 255 255 256 256 257 257 259 260 261 262 263 266 268 270 269 269 270 271
251 250 250 249 249 250 250 250 250 249 250 251 252 252 251 251 251 252 252 252 252 253 254 255 255 256 255 255 255 257 258 260 261 262 263 265 266 267 269 270 270 270 271
250 250 249 249 249 249 249 249 249 248 249 250 251 252 252 251 251 251 250 252 253 254 255 255 256 256 256 255 256 257 259 261 261 263 264 265 266 268 269 269 269 270 272
249 249 249 248 248 249 249 248 248 247 248 249 250 251 252 252 251 251 249 250 252 253 254 255 256 257 257 257 258 259 261 263 263 263 264 265 266 266 268 269 269 271 272
249 249 248 248 249 248 248 249 248 247 247 248 249 250 251 251 252 251 251 251 251 252 253 255 256 257 258 259 260 261 263 263 264 265 264 265 266 266 267 268 269 269 271
249 248 248 248 248 248 247 248 249 248 247 247 248 249 251 251 251 251 252 252 252 252 253 255 255 256 258 259 261 262 263 264 264 265 265 265 267 267 268 268 269 271 273
249 248 247 248 249 248 248 249 249 249 248 248 249 250 250 251 251 252 252 253 253 252 253 255 255 255 257 259 261 262 262 262 263 265 265 266 266 267 269 270 271 273 274
249 248 247 247 247 248 249 249 249 249 249 249 249 250 250 251 252 253 252 254 254 254 254 256 257 257 257 259 260 261 261 262 262 263 264 266 267 268 269 270 272 274 275
248 248 247 247 247 248 249 250 250 250 249 250 251 251 251 251 252 254 254 254 255 255 256 257 257 258 259 259 260 261 262 262 262 262 263 265 266 267 269 270 272 274 274
248 248 246 246 246 248 250 250 249 249 249 250 250 251 252 252 252 254 254 255 255 255 256 256 256 257 258 259 261 262 262 262 262 263 263 264 265 267 269 270 272 273 274
248 247 245 245 246 247 248 248 247 247 248 249 250 252 252 252 252 253 254 254 255 255 256 257 257 257 258 259 260 262 262 262 262 263 263 263 265 266 268 270 272 272 273
248 246 245 245 246 246 247 247 247 248 249 250 250 251 252 252 252 253 254 255 255 256 256 256 257 258 259 260 261 263 262 262 262 263 264 264 265 267 268 270 271 272 274
249 247 245 245 246 247 247 247 248 249 250 251 251 251 252 252 252 253 254 255 255 255 256 257 257 258 259 260 262 263 262 262 262 263 264 265 266 268 269 271 271 272 273
249 248 247 246 246 246 247 248 248 249 250 250 251 252 252 252 252 253 254 255 256 255 255 257 258 259 260 261 262 264 264 263 263 263 264 265 267 268 269 270 271 272 273
248 247 247 247 246 247 247 247 248 248 249 250 251 252 252 253 254 255 255 255 255 256 256 257 258 259 260 262 263 264 263 263 263 264 265 266 267 268 269 270 271 271 273
246 245 246 247 248 248 247 246 247 247 248 250 251 252 252 253 254 255 255 255 256 256 257 257 258 258 260 261 262 263 263 263 263 264 265 266 266 268 268 270 271 272 273
245 246 247 248 248 248 247 246 247 247 248 249 250 251 251 252 253 254 255 256 256 257 257 258 259 260 261 262 262 262 263 263 263 264 265 265 267 268 268 269 271 272 273
246 247 248 248 247 248 247 247 246 246 247 248 249 250 251 252 253 254 255 256 257 257 258 259 259 260 261 262 262 262 263 263 264 264 266 267 267 268 269 270 271 272 273
245 246 247 247 247 247 247 246 246 246 247 248 249 250 251 252 253 254 256 257 257 258 259 259 260 261 262 262 262 262 262 263 264 265 266 267 267 268 269 270 271 272 273
246 246 247 247 246 247 246 246 246 247 247 248 249 250 251 253 254 255 256 257 258 259 259 259 260 261 262 262 262 262 262 263 264 265 266 267 267 268 269 270 271 273 274
247 247 246 246 247 247 247 247 247 247 247 249 250 251 253 254 255 255 256 256 257 258 259 259 260 261 262 262 263 263 264 264 265 266 267 267 268 269 270 271 272 274 275
246 245 245 244 246 247 247 247 247 248 249 250 251 252 252 253 254 255 256 256 257 257 258 258 259 261 262 262 263 264 264 265 265 266 267 268 268 269 270 271 272 274 274
246 245 244 244 245 246 246 247 248 249 250 250 251 252 252 252 253 255 255 256 256 256 257 258 259 261 262 263 264 265 265 266 266 267 268 268 268 269 270 272 273 274 274
245 245 246 246 246 246 246 247 248 249 250 251 252 252 253 253 253 255 255 255 256 256 257 259 260 262 263 263 264 265 265 266 267 268 268 268 269 270 271 272 273 274 274
245 245 244 244 246 246 246 247 249 249 251 252 253 253 253 253 253 254 255 255 256 257 257 259 261 263 264 264 265 265 266 268 268 268 268 269 269 270 270 271 273 274 274
Height
5796 5798 5800 5801 5803 5805 5806 5808 5809 5811 5812 5813 5814 5815 5817 5818 5819 5821 5822 5823 5824 5826 5827 5828 5829 5830 5831 5832 5833 5833 5834 5834 5835 5835 5836 5836 5836 5836 5836 5836 5836 5836 5836
5789 5791 5792 5794 5796 5798 5799 5801 5802 5804 5805 5807 5808 5809 5810 5812 5813 5815 5816 5817 5818 5820 5821 5822 5823 5824 5825 5826 5827 5828 5828 5829 5830 5830 5830 5831 5831 5831 5831 5831 5831 5831 5830
5781 5783 5784 5786 5788 5790 5792 5794 5795 5797 5798 5800 5801 5803 5804 5806 5807 5808 5810 5811 5812 5814 5815 5816 5817 5818 5819 5820 5821 5822 5822 5823 5824 5824 5825 5825 5825 5825 5825 5825 5825 5824 5824
5772 5774 5776 5778 5780 5782 5784 5786 5788 5789 5791 5793 5794 5796 5797 5799 5800 5802 5803 5805 5806 5808 5809 5810 5811 5812 5813 5814 5815 5815 5816 5817 5817 5818 5818 5818 5819 5819 5819 5818 5818 5818 5818
5763 5765 5767 5770 5772 5774 5776 5778 5780 5781 5783 5785 5787 5788 5790 5791 5793 5795 5796 5798 5799 5801 5802 5803 5804 5805 5806 5807 5808 5809 5809 5810 5811 5811 5812 5812 5812 5812 5812 5812 5812 5812 5812
5753 5755 5758 5761 5763 5765 5767 5769 5772 5773 5775 5777 5778 5780 5782 5783 5785 5787 5789 5791 5792 5794 5795 5796 5797 5798 5799 5800 5801 5802 5802 5803 5804 5804 5804 5805 5805 5805 5805 5805 5805 5805 5805
5743 5745 5748 5751 5753 5756 5759 5761 5763 5765 5766 5768 5770 5772 5773 5775 5777 5779 5781 5783 5784 5786 5787 5789 5790 5791 5792 5793 5794 5795 5795 5796 5796 5797 5797 5797 5797 5798 5798 5798 5798 5798 5798
5732 5734 5738 5741 5743 5746 5749 5751 5754 5756 5757 5759 5761 5763 5765 5767 5769 5771 5773 5775 5776 5778 5779 5781 5782 5783 5784 5785 5786 5787 5788 5788 5789 5789 5789 5790 5790 5790 5790 5790 5790 5790 5790
5721 5724 5727 5730 5733 5736 5739 5741 5744 5746 5748 5750 5752 5754 5756 5758 5760 5762 5764 5766 5767 5769 5771 5772 5774 5775 5776 5777 5778 5779 5779 5780 5781 5781 5781 5782 5782 5782 5782 5783 5783 5782 5782
5710 5712 5716 5719 5722 5725 5728 5731 5734 5736 5738 5740 5742 5744 5747 5749 5751 5753 5755 5757 5758 5760 5762 5764 5765 5766 5767 5769 5769 5770 5771 5772 5772 5773 5773 5773 5774 5774 5774 5774 5774 5774 5773
5697 5700 5704 5708 5711 5714 5717 5720 5723 5725 5728 5730 5732 5734 5736 5739 5741 5743 5746 5748 5749 5751 5753 5754 5756 5757 5758 5759 5760 5761 5762 5763 5763 5764 5764 5765 5765 5765 5765 5765 5765 5764 5764
5685 5688 5691 5695 5699 5702 5706 5709 5712 5714 5717 5720 5722 5724 5726 5729 5731 5734 5736 5739 5740 5742 5743 5745 5746 5748 5749 5750 5751 5751 5752 5753 5754 5754 5755 5755 5756 5756 5756 5756 5755 5755 5754
5672 5675 5678 5682 5686 5690 5693 5697 5700 5703 5706 5708 5711 5714 5716 5719 5721 5723 5726 5728 5730 5732 5734 5735 5737 5738 5739 5740 5741 5741 5742 5743 5744 5744 5745 5745 5745 5746 5746 5745 5745 5744 5744
5658 5661 5665 5669 5673 5677 5681 5684 5688 5691 5694 5697 5700 5703 5705 5708 5710 5713 5715 5717 5719 5722 5723 5725 5726 5727 5728 5729 5730 5731 5732 5732 5733 5734 5734 5735 5735 5735 5735 5735 5734 5734 5733
5645 5648 5652 5656 5660 5664 5667 5671 5675 5679 5682 5685 5688 5691 5694 5697 5699 5701 5704 5706 5708 5710 5713 5714 5715 5716 5717 5718 5719 5720 5721 5721 5722 5723 5723 5724 5724 5724 5724 5724 5723 5723 5722
5631 5635 5638 5642 5646 5650 5654 5658 5662 5666 5669 5672 5676 5679 5682 5685 5687 5690 5692 5694 5696 5698 5700 5703 5704 5705 5705 5706 5707 5708 5709 5710 5711 5711 5712 5712 5712 5712 5712 5712 5711 5711 5710
5619 5623 5626 5630 5633 5637 5640 5644 5648 5652 5656 5659 5663 5666 5670 5672 5675 5677 5680 5682 5684 5686 5688 5691 5692 5693 5694 5695 5695 5696 5697 5698 5699 5699 5700 5700 5700 5700 5700 5700 5699 5699 5698
5606 5610 5613 5617 5620 5624 5627 5631 5635 5639 5643 5647 5650 5653 5657 5659 5662 5665 5667 5669 5672 5673 5676 5678 5680 5681 5682 5682 5683 5684 5685 5686 5687 5687 5687 5688 5688 5688 5688 5687 5687 5686 5685
5593 5597 5600 5604 5607 5611 5615 5618 5622 5626 5630 5634 5637 5641 5644 5647 5650 5652 5655 5657 5659 5661 5663 5665 5667 5669 5669 5670 5671 5672 5672 5673 5674 5674 5675 5675 5675 5675 5675 5675 5674 5674 5673
5581 5584 5587 5591 5595 5598 5602 5606 5610 5613 5617 5621 5624 5628 5631 5634 5637 5639 5642 5644 5646 5648 5650 5652 5654 5655 5656 5657 5658 5659 5660 5660 5661 5662 5662 5662 5662 5662 5662 5662 5662 5661 5660
5568 5571 5575 5578 5582 5586 5589 5593 5597 5601 5605 5608 5612 5615 5618 5621 5624 5626 5629 5631 5633 5635 5636 5638 5640 5642 5643 5644 5645 5646 5647 5648 5648 5649 5649 5649 5649 5649 5649 5649 5648 5647 5646
5555 5558 5562 5566 5570 5573 5577 5581 5584 5588 5592 5596 5599 5602 5605 5608 5610 5613 5615 5618 5620 5622 5623 5625 5627 5629 5630 5631 5631 5632 5633 5635 5636 5637 5636 5636 5636 5636 5636 5635 5635 5634 5633
5542 5546 5550 5554 5557 5561 5564 5568 5572 5576 5579 5583 5586 5589 5592 5595 5597 5600 5602 5604 5606 5608 5610 5613 5614 5615 5617 5618 5618 5619 5619 5620 5622 5622 5622 5623 5622 5622 5622 5621 5620 5620 5618
5530 5534 5537 5541 5545 5549 5552 5556 5559 5563 5567 5570 5573 5576 5579 5582 5584 5586 5589 5591 5593 5595 5598 5600 5602 5603 5603 5604 5604 5605 5606 5606 5608 5608 5607 5608 5608 5608 5608 5607 5607 5605 5604
5518 5521 5525 5529 5533 5536 5540 5544 5547 5551 5555 5558 5561 5564 5566 5569 5571 5574 5576 5579 5581 5583 5584 5586 5588 5589 5590 5590 5591 5591 5592 5593 5594 5594 5593 5594 5594 5594 5594 5594 5593 5591 5590
5506 5509 5513 5517 5521 5524 5528 5532 5535 5539 5543 5546 5549 5551 5554 5556 5558 5560 5563 5566 5568 5570 5572 5574 5575 5576 5576 5577 5578 5578 5579 5579 5580 5581 5580 5580 5580 5580 5581 5580 5579 5577 5575